FDY863 PHMK-PHNL

Flight info

Callsign FDY863
Flight time 0h 25m
Altitude 8000
Route HAPAI3 BAMBO V12 HNL DCT
Aircraft C208/L-SDFGR/C

Departure

Time 2026-05-04 02:21
Airport Molokai Airport (PHMK)

Arrival

Time 2026-05-04 02:46
Airport Daniel K. Inouye International Airport (PHNL)
Time Latitude Longitude Altitude Speed Heading
2026-05-04 02:18 21.15018 -157.10137 462 ft 0 kts 156°
2026-05-04 02:19 21.14992 -157.10121 463 ft 7 kts 146°
2026-05-04 02:19 21.14974 -157.10100 463 ft 4 kts 101°
2026-05-04 02:19 21.14978 -157.10083 463 ft 0 kts 61°
2026-05-04 02:20 21.14983 -157.10073 463 ft 10 kts 60°
2026-05-04 02:20 21.15100 -157.09853 461 ft 57 kts 60°
2026-05-04 02:21 21.15333 -157.09424 525 ft 82 kts 59°
2026-05-04 02:21 21.15651 -157.08862 748 ft 91 kts 60°
2026-05-04 02:21 21.15977 -157.08328 1237 ft 80 kts 60°
2026-05-04 02:21 21.16340 -157.07918 1619 ft 75 kts 42°
2026-05-04 02:22 21.16866 -157.07845 1941 ft 83 kts 358°
2026-05-04 02:22 21.17392 -157.08179 2182 ft 92 kts 335°
2026-05-04 02:22 21.17953 -157.08526 2412 ft 95 kts 347°
2026-05-04 02:22 21.18508 -157.08792 2607 ft 103 kts 348°
2026-05-04 02:23 21.19187 -157.09139 2813 ft 114 kts 345°
2026-05-04 02:23 21.19826 -157.09752 3004 ft 137 kts 308°
2026-05-04 02:23 21.20155 -157.10757 3188 ft 148 kts 288°
2026-05-04 02:23 21.20386 -157.11856 3382 ft 154 kts 286°
2026-05-04 02:24 21.20630 -157.12983 3561 ft 156 kts 287°
2026-05-04 02:24 21.20886 -157.14096 3754 ft 156 kts 288°
2026-05-04 02:24 21.21156 -157.15226 3946 ft 157 kts 287°
2026-05-04 02:24 21.21430 -157.16368 4151 ft 160 kts 287°
2026-05-04 02:25 21.21713 -157.17523 4337 ft 160 kts 287°
2026-05-04 02:25 21.22000 -157.18679 4532 ft 160 kts 287°
2026-05-04 02:25 21.22287 -157.19827 4729 ft 159 kts 286°
2026-05-04 02:25 21.22560 -157.20977 4921 ft 159 kts 287°
2026-05-04 02:26 21.22833 -157.22117 5107 ft 157 kts 287°
2026-05-04 02:26 21.23112 -157.23244 5299 ft 156 kts 287°
2026-05-04 02:26 21.23394 -157.24359 5496 ft 154 kts 287°
2026-05-04 02:26 21.23667 -157.25465 5683 ft 153 kts 285°
2026-05-04 02:27 21.23937 -157.26562 5880 ft 151 kts 285°
2026-05-04 02:27 21.24160 -157.27659 6086 ft 150 kts 276°
2026-05-04 02:27 21.24242 -157.28760 6282 ft 150 kts 273°
2026-05-04 02:27 21.24311 -157.29873 6487 ft 150 kts 273°
2026-05-04 02:28 21.24378 -157.30981 6664 ft 148 kts 273°
2026-05-04 02:28 21.24442 -157.32085 6858 ft 148 kts 273°
2026-05-04 02:28 21.24503 -157.33179 7034 ft 146 kts 274°
2026-05-04 02:28 21.24563 -157.34267 7226 ft 145 kts 273°
2026-05-04 02:29 21.24623 -157.35350 7418 ft 145 kts 273°
2026-05-04 02:29 21.24684 -157.36426 7602 ft 144 kts 274°
2026-05-04 02:29 21.24744 -157.37491 7792 ft 143 kts 274°
2026-05-04 02:29 21.24803 -157.38551 7931 ft 146 kts 274°
2026-05-04 02:30 21.24863 -157.39580 7909 ft 155 kts 274°
2026-05-04 02:30 21.24932 -157.40754 7900 ft 160 kts 274°
2026-05-04 02:30 21.25000 -157.41956 7888 ft 161 kts 274°
2026-05-04 02:30 21.25063 -157.43152 7880 ft 162 kts 274°
2026-05-04 02:31 21.25129 -157.44371 7882 ft 165 kts 274°
2026-05-04 02:31 21.25197 -157.45572 7877 ft 165 kts 274°
2026-05-04 02:31 21.25258 -157.46716 8006 ft 149 kts 273°
2026-05-04 02:31 21.25261 -157.47524 8848 ft 81 kts 271°
2026-05-04 02:32 21.25324 -157.48265 6864 ft 203 kts 288°
2026-05-04 02:32 21.25586 -157.49504 7171 ft 134 kts 280°
2026-05-04 02:32 21.25701 -157.50397 7525 ft 117 kts 274°
2026-05-04 02:32 21.25676 -157.51273 7702 ft 120 kts 266°
2026-05-04 02:33 21.25635 -157.52206 7799 ft 131 kts 270°
2026-05-04 02:33 21.25649 -157.53158 7844 ft 144 kts 273°
2026-05-04 02:33 21.25701 -157.54275 7866 ft 156 kts 274°
2026-05-04 02:33 21.25772 -157.55473 7870 ft 165 kts 274°
2026-05-04 02:34 21.25845 -157.56725 7877 ft 171 kts 274°
2026-05-04 02:34 21.25912 -157.57915 7888 ft 174 kts 274°
2026-05-04 02:34 21.25978 -157.59129 7890 ft 176 kts 274°
2026-05-04 02:34 21.26050 -157.60451 7891 ft 178 kts 274°
2026-05-04 02:35 21.26122 -157.61780 7898 ft 179 kts 274°
2026-05-04 02:35 21.26192 -157.63102 7900 ft 180 kts 274°
2026-05-04 02:35 21.26266 -157.64446 7905 ft 181 kts 274°
2026-05-04 02:35 21.26341 -157.65793 7903 ft 181 kts 274°
2026-05-04 02:36 21.26416 -157.67144 7906 ft 182 kts 274°
2026-05-04 02:36 21.26490 -157.68501 7901 ft 182 kts 274°
2026-05-04 02:36 21.26565 -157.69860 7906 ft 183 kts 274°
2026-05-04 02:36 21.26721 -157.71212 7905 ft 183 kts 282°
2026-05-04 02:37 21.26995 -157.72542 7902 ft 182 kts 284°
2026-05-04 02:37 21.27267 -157.73867 7902 ft 182 kts 283°
2026-05-04 02:37 21.27521 -157.75196 7902 ft 182 kts 282°
2026-05-04 02:37 21.27772 -157.76525 7906 ft 182 kts 282°
2026-05-04 02:38 21.28025 -157.77855 7909 ft 182 kts 282°
2026-05-04 02:38 21.28280 -157.79187 7910 ft 183 kts 282°
2026-05-04 02:38 21.28536 -157.80528 7912 ft 183 kts 282°
2026-05-04 02:38 21.28790 -157.81870 7908 ft 184 kts 282°
2026-05-04 02:39 21.29044 -157.83212 7909 ft 184 kts 282°
2026-05-04 02:39 21.29300 -157.84558 7907 ft 184 kts 282°
2026-05-04 02:39 21.29555 -157.85901 7904 ft 183 kts 282°
2026-05-04 02:39 21.29807 -157.87224 7902 ft 183 kts 282°
2026-05-04 02:40 21.30060 -157.88559 7908 ft 182 kts 282°
2026-05-04 02:40 21.30312 -157.89891 7857 ft 184 kts 283°
2026-05-04 02:40 21.30583 -157.91277 7619 ft 194 kts 283°
2026-05-04 02:40 21.30724 -157.92670 7376 ft 178 kts 257°
2026-05-04 02:41 21.30314 -157.93856 7135 ft 163 kts 244°
2026-05-04 02:41 21.29848 -157.94909 6886 ft 148 kts 242°
2026-05-04 02:41 21.29439 -157.95785 6656 ft 138 kts 240°
2026-05-04 02:41 21.29160 -157.96384 6501 ft 133 kts 241°
2026-05-04 02:42 21.28753 -157.97255 6241 ft 128 kts 241°
2026-05-04 02:42 21.28345 -157.98090 5992 ft 125 kts 239°
2026-05-04 02:42 21.27807 -157.99174 5671 ft 123 kts 239°
2026-05-04 02:42 21.27299 -157.99884 5453 ft 118 kts 199°
2026-05-04 02:43 21.26594 -157.99817 5221 ft 99 kts 128°
2026-05-04 02:43 21.26454 -157.99394 5071 ft 92 kts 79°
2026-05-04 02:43 21.26870 -157.98803 4581 ft 113 kts 49°
2026-05-04 02:43 21.27466 -157.98200 4090 ft 121 kts 49°
2026-05-04 02:44 21.28048 -157.97539 3568 ft 124 kts 56°
2026-05-04 02:44 21.28525 -157.96801 2949 ft 119 kts 70°
2026-05-04 02:44 21.28979 -157.96074 2372 ft 115 kts 67°
2026-05-04 02:44 21.29477 -157.95406 1775 ft 114 kts 64°
2026-05-04 02:45 21.29931 -157.94756 1247 ft 107 kts 69°
2026-05-04 02:45 21.30352 -157.94123 805 ft 97 kts 69°
2026-05-04 02:45 21.30751 -157.93585 461 ft 87 kts 68°
2026-05-04 02:45 21.31139 -157.93077 213 ft 88 kts 53°
2026-05-04 02:46 21.31496 -157.92573 34 ft 79 kts 56°
2026-05-04 02:46 21.31792 -157.92154 26 ft 62 kts 53°
2026-05-04 02:46 21.32008 -157.91845 23 ft 39 kts 52°
2026-05-04 02:46 21.32125 -157.91680 23 ft 18 kts 52°
2026-05-04 02:47 21.32171 -157.91614 23 ft 4 kts 54°
2026-05-04 02:47 21.32180 -157.91598 23 ft 4 kts 58°
2026-05-04 02:47 21.32196 -157.91530 23 ft 16 kts 101°
2026-05-04 02:47 21.32130 -157.91428 23 ft 11 kts 133°
2026-05-04 02:48 21.32085 -157.91388 23 ft 10 kts 142°
2026-05-04 02:48 21.32077 -157.91323 24 ft 4 kts 55°
2026-05-04 02:48 21.32079 -157.91320 23 ft 0 kts 55°